Time,TemperatureF,DewpointF,PressureIn,WindDirection,WindDirectionDegrees,WindSpeedMPH,WindSpeedGustMPH,Humidity,HourlyPrecipIn,Conditions,Clouds,dailyrainin,SoftwareType,DateUTC
2013-09-28 00:05:00,51.9,51.9,30.15,North,0,0.0,0.0,100,0.00,,,0.00,meteo_script,2013-09-28 04:05:00,
2013-09-28 00:10:00,51.9,51.9,30.14,North,0,0.0,0.0,100,0.00,,,0.00,meteo_script,2013-09-28 04:10:00,
2013-09-28 00:15:00,51.8,51.8,30.14,North,0,0.0,0.0,100,0.00,,,0.00,meteo_script,2013-09-28 04:15:00,
2013-09-28 00:20:00,51.7,51.7,30.14,North,0,0.0,0.0,100,0.00,,,0.00,meteo_script,2013-09-28 04:20:00,
2013-09-28 00:25:00,51.7,51.7,30.14,North,0,0.0,0.0,100,0.00,,,0.00,meteo_script,2013-09-28 04:25:00,
2013-09-28 00:30:00,51.7,51.7,30.14,North,0,0.0,0.0,100,0.00,,,0.00,meteo_script,2013-09-28 04:30:00,
2013-09-28 00:40:00,51.6,51.6,30.14,North,0,0.0,0.0,100,0.00,,,0.00,meteo_script,2013-09-28 04:40:00,
2013-09-28 00:45:00,51.5,51.5,30.14,North,0,0.0,0.0,100,0.00,,,0.00,meteo_script,2013-09-28 04:45:00,
2013-09-28 00:55:00,51.5,51.5,30.14,North,0,0.0,0.0,100,0.00,,,0.00,meteo_script,2013-09-28 04:55:00,
2013-09-28 01:00:00,51.4,51.4,30.14,North,0,0.0,0.0,100,0.00,,,0.00,meteo_script,2013-09-28 05:00:00,
2013-09-28 01:05:00,51.4,51.4,30.14,North,0,0.0,0.0,100,0.00,,,0.00,meteo_script,2013-09-28 05:05:00,
2013-09-28 01:15:00,51.2,51.2,30.14,North,0,0.0,0.0,100,0.00,,,0.00,meteo_script,2013-09-28 05:15:00,
2013-09-28 01:20:00,51.2,51.2,30.14,North,0,0.0,0.0,100,0.00,,,0.00,meteo_script,2013-09-28 05:20:00,
2013-09-28 01:30:00,50.8,50.8,30.14,North,0,0.0,0.0,100,0.00,,,0.00,meteo_script,2013-09-28 05:30:00,
2013-09-28 01:35:00,50.7,50.7,30.14,North,0,0.0,0.0,100,0.00,,,0.00,meteo_script,2013-09-28 05:35:00,
2013-09-28 01:40:00,50.7,50.7,30.14,North,0,0.0,0.0,100,0.00,,,0.00,meteo_script,2013-09-28 05:40:00,
2013-09-28 01:50:00,50.6,50.6,30.14,North,0,0.0,0.0,100,0.00,,,0.00,meteo_script,2013-09-28 05:50:00,
2013-09-28 01:55:00,50.6,50.6,30.15,North,0,0.0,0.0,100,0.00,,,0.00,meteo_script,2013-09-28 05:55:00,
2013-09-28 02:05:00,50.3,50.3,30.14,North,0,0.0,0.0,100,0.00,,,0.00,meteo_script,2013-09-28 06:05:00,
2013-09-28 02:10:00,50.3,50.3,30.15,North,0,0.0,0.0,100,0.00,,,0.00,meteo_script,2013-09-28 06:10:00,
2013-09-28 02:20:00,50.2,50.2,30.14,North,0,0.0,0.0,100,0.00,,,0.00,meteo_script,2013-09-28 06:20:00,
2013-09-28 02:25:00,50.1,50.1,30.14,North,0,0.0,0.0,100,0.00,,,0.00,meteo_script,2013-09-28 06:25:00,
2013-09-28 02:30:00,50.1,50.0,30.14,North,0,0.0,0.0,100,0.00,,,0.00,meteo_script,2013-09-28 06:30:00,
2013-09-28 02:40:00,50.0,50.0,30.14,North,0,0.0,0.0,100,0.00,,,0.00,meteo_script,2013-09-28 06:40:00,
2013-09-28 02:45:00,49.9,49.9,30.14,North,0,0.0,0.0,100,0.00,,,0.00,meteo_script,2013-09-28 06:45:00,
2013-09-28 02:55:00,49.8,49.8,30.14,North,0,0.0,0.0,100,0.00,,,0.00,meteo_script,2013-09-28 06:55:00,
2013-09-28 03:00:00,49.8,49.8,30.14,North,0,0.0,0.0,100,0.00,,,0.00,meteo_script,2013-09-28 07:00:00,
2013-09-28 03:05:00,49.8,49.8,30.14,North,0,0.0,0.0,100,0.00,,,0.00,meteo_script,2013-09-28 07:05:00,
2013-09-28 03:15:00,49.7,49.7,30.14,North,0,0.0,0.0,100,0.00,,,0.00,meteo_script,2013-09-28 07:15:00,
2013-09-28 03:20:00,49.7,49.7,30.14,North,0,0.0,0.0,100,0.00,,,0.00,meteo_script,2013-09-28 07:20:00,
2013-09-28 03:30:00,49.7,49.7,30.14,North,0,0.0,0.0,100,0.00,,,0.00,meteo_script,2013-09-28 07:30:00,
2013-09-28 03:35:00,49.6,49.6,30.15,North,0,0.0,0.0,100,0.00,,,0.00,meteo_script,2013-09-28 07:35:00,
2013-09-28 03:40:00,49.6,49.6,30.14,North,0,0.0,0.0,100,0.00,,,0.00,meteo_script,2013-09-28 07:40:00,
2013-09-28 03:50:00,49.5,49.5,30.14,North,0,0.0,0.0,100,0.00,,,0.00,meteo_script,2013-09-28 07:50:00,
2013-09-28 04:00:00,49.3,49.3,30.14,North,0,0.0,0.0,100,0.00,,,0.00,meteo_script,2013-09-28 08:00:00,
2013-09-28 04:05:00,49.2,49.2,30.14,North,0,0.0,0.0,100,0.00,,,0.00,meteo_script,2013-09-28 08:05:00,
2013-09-28 04:10:00,49.2,49.2,30.15,North,0,0.0,0.0,100,0.00,,,0.00,meteo_script,2013-09-28 08:10:00,
2013-09-28 04:20:00,49.1,49.1,30.15,North,0,0.0,0.0,100,0.00,,,0.00,meteo_script,2013-09-28 08:20:00,
2013-09-28 04:25:00,49.0,49.0,30.15,North,0,0.0,0.0,100,0.00,,,0.00,meteo_script,2013-09-28 08:25:00,
2013-09-28 04:35:00,48.8,48.8,30.15,North,0,0.0,0.0,100,0.00,,,0.00,meteo_script,2013-09-28 08:35:00,
2013-09-28 04:40:00,48.7,48.7,30.15,North,0,0.0,0.0,100,0.00,,,0.00,meteo_script,2013-09-28 08:40:00,
2013-09-28 04:50:00,48.4,48.4,30.16,North,0,0.0,0.0,100,0.00,,,0.00,meteo_script,2013-09-28 08:50:00,
2013-09-28 04:55:00,48.3,48.3,30.16,North,0,0.0,0.0,100,0.00,,,0.00,meteo_script,2013-09-28 08:55:00,
2013-09-28 05:00:00,48.3,48.3,30.16,North,0,0.0,0.0,100,0.00,,,0.00,meteo_script,2013-09-28 09:00:00,
2013-09-28 05:10:00,48.2,48.2,30.16,North,0,0.0,0.0,100,0.00,,,0.00,meteo_script,2013-09-28 09:10:00,
2013-09-28 05:15:00,48.0,48.0,30.16,North,0,0.0,0.0,100,0.00,,,0.00,meteo_script,2013-09-28 09:15:00,
2013-09-28 05:25:00,47.9,47.9,30.15,North,0,0.0,0.0,100,0.00,,,0.00,meteo_script,2013-09-28 09:25:00,
2013-09-28 05:30:00,47.9,47.9,30.16,North,0,0.0,0.0,100,0.00,,,0.00,meteo_script,2013-09-28 09:30:00,
2013-09-28 05:40:00,47.8,47.8,30.15,North,0,0.0,0.0,100,0.00,,,0.00,meteo_script,2013-09-28 09:40:00,
2013-09-28 05:45:00,47.8,47.8,30.15,North,0,0.0,0.0,100,0.00,,,0.00,meteo_script,2013-09-28 09:45:00,
2013-09-28 05:50:00,47.7,47.7,30.16,North,0,0.0,0.0,100,0.00,,,0.00,meteo_script,2013-09-28 09:50:00,
2013-09-28 06:00:00,47.6,47.6,30.16,North,0,0.0,0.0,100,0.00,,,0.00,meteo_script,2013-09-28 10:00:00,
2013-09-28 06:05:00,47.5,47.5,30.16,North,0,0.0,0.0,100,0.00,,,0.00,meteo_script,2013-09-28 10:05:00,
2013-09-28 06:15:00,47.4,47.4,30.16,North,0,0.0,0.0,100,0.00,,,0.00,meteo_script,2013-09-28 10:15:00,
2013-09-28 06:25:00,47.4,47.4,30.16,North,0,0.0,0.0,100,0.00,,,0.00,meteo_script,2013-09-28 10:25:00,
2013-09-28 06:35:00,47.6,47.6,30.17,North,0,0.0,0.0,100,0.00,,,0.00,meteo_script,2013-09-28 10:35:00,
2013-09-28 06:40:00,47.6,47.6,30.17,North,0,0.0,0.0,100,0.00,,,0.00,meteo_script,2013-09-28 10:40:00,
2013-09-28 06:50:00,47.6,47.6,30.17,North,0,0.0,0.0,100,0.00,,,0.00,meteo_script,2013-09-28 10:50:00,
2013-09-28 06:55:00,47.6,47.6,30.17,North,0,0.0,0.0,100,0.00,,,0.00,meteo_script,2013-09-28 10:55:00,
2013-09-28 07:00:00,47.7,47.7,30.18,North,0,0.0,0.0,100,0.00,,,0.00,meteo_script,2013-09-28 11:00:00,
2013-09-28 07:10:00,47.8,47.8,30.18,North,0,0.0,0.0,100,0.00,,,0.00,meteo_script,2013-09-28 11:10:00,
2013-09-28 07:15:00,47.7,47.7,30.18,North,0,0.0,0.0,100,0.00,,,0.00,meteo_script,2013-09-28 11:15:00,
2013-09-28 07:25:00,47.7,47.7,30.18,North,0,0.0,0.0,100,0.00,,,0.00,meteo_script,2013-09-28 11:25:00,
2013-09-28 07:30:00,47.6,47.6,30.18,North,0,0.0,0.0,100,0.00,,,0.00,meteo_script,2013-09-28 11:30:00,
2013-09-28 07:40:00,47.5,47.5,30.19,North,0,0.0,0.0,100,0.00,,,0.00,meteo_script,2013-09-28 11:40:00,
2013-09-28 07:45:00,47.4,47.4,30.19,North,0,0.0,0.0,100,0.00,,,0.00,meteo_script,2013-09-28 11:45:00,
2013-09-28 07:50:00,47.4,47.4,30.19,North,0,0.0,0.0,100,0.00,,,0.00,meteo_script,2013-09-28 11:50:00,
2013-09-28 08:00:00,47.4,47.4,30.20,North,0,0.0,0.0,100,0.00,,,0.00,meteo_script,2013-09-28 12:00:00,
2013-09-28 08:05:00,47.5,47.5,30.19,North,0,0.0,0.0,100,0.00,,,0.00,meteo_script,2013-09-28 12:05:00,
2013-09-28 08:15:00,47.7,47.7,30.20,North,0,0.0,0.0,100,0.00,,,0.00,meteo_script,2013-09-28 12:15:00,
2013-09-28 08:20:00,47.8,47.8,30.20,North,0,0.0,0.0,100,0.00,,,0.00,meteo_script,2013-09-28 12:20:00,
2013-09-28 08:25:00,48.1,48.1,30.20,North,0,0.0,0.0,100,0.00,,,0.00,meteo_script,2013-09-28 12:25:00,
2013-09-28 08:35:00,48.6,48.6,30.20,North,0,0.0,0.0,100,0.00,,,0.00,meteo_script,2013-09-28 12:35:00,
2013-09-28 08:40:00,49.0,49.0,30.20,North,0,0.0,0.0,100,0.00,,,0.00,meteo_script,2013-09-28 12:40:00,
2013-09-28 08:45:00,49.3,49.3,30.20,North,0,0.0,0.0,100,0.00,,,0.00,meteo_script,2013-09-28 12:45:00,
2013-09-28 08:55:00,50.1,50.1,30.20,North,0,0.0,0.0,100,0.00,,,0.00,meteo_script,2013-09-28 12:55:00,
2013-09-28 09:00:00,50.6,50.6,30.20,North,0,0.0,0.0,100,0.00,,,0.00,meteo_script,2013-09-28 13:00:00,
2013-09-28 09:10:00,51.7,51.7,30.20,North,0,0.0,0.0,100,0.00,,,0.00,meteo_script,2013-09-28 13:10:00,
2013-09-28 09:15:00,52.2,52.2,30.20,North,0,0.0,0.0,100,0.00,,,0.00,meteo_script,2013-09-28 13:15:00,
2013-09-28 09:25:00,53.1,53.1,30.20,North,0,0.0,0.0,100,0.00,,,0.00,meteo_script,2013-09-28 13:25:00,
2013-09-28 09:30:00,53.6,53.6,30.20,North,0,0.0,0.0,100,0.00,,,0.00,meteo_script,2013-09-28 13:30:00,
2013-09-28 09:35:00,54.0,54.0,30.21,North,0,0.0,0.0,100,0.00,,,0.00,meteo_script,2013-09-28 13:35:00,
2013-09-28 09:40:00,54.5,54.5,30.21,North,0,0.0,0.0,100,0.00,,,0.00,meteo_script,2013-09-28 13:40:00,
2013-09-28 09:45:00,55.0,55.0,30.21,North,0,0.0,0.0,100,0.00,,,0.00,meteo_script,2013-09-28 13:45:00,
2013-09-28 09:50:00,55.6,55.6,30.21,North,0,0.0,0.0,100,0.00,,,0.00,meteo_script,2013-09-28 13:50:00,
2013-09-28 10:00:00,56.6,56.6,30.20,ESE,121,0.0,1.0,100,0.00,,,0.00,meteo_script,2013-09-28 14:00:00,
2013-09-28 10:05:00,57.1,57.1,30.20,North,0,0.0,1.0,100,0.00,,,0.00,meteo_script,2013-09-28 14:05:00,
2013-09-28 10:15:00,57.9,57.9,30.21,North,0,0.0,0.0,100,0.00,,,0.00,meteo_script,2013-09-28 14:15:00,
2013-09-28 10:20:00,58.3,58.3,30.20,ESE,122,0.0,1.0,100,0.00,,,0.00,meteo_script,2013-09-28 14:20:00,
2013-09-28 10:30:00,59.5,59.5,30.20,North,0,0.0,0.0,100,0.00,,,0.00,meteo_script,2013-09-28 14:30:00,
2013-09-28 10:35:00,60.1,60.1,30.20,WSW,239,0.1,3.0,100,0.00,,,0.00,meteo_script,2013-09-28 14:35:00,
2013-09-28 10:45:00,61.4,61.4,30.20,North,0,0.0,0.0,100,0.00,,,0.00,meteo_script,2013-09-28 14:45:00,
2013-09-28 10:50:00,62.0,62.0,30.20,North,0,0.0,0.0,100,0.00,,,0.00,meteo_script,2013-09-28 14:50:00,
2013-09-28 11:05:00,64.5,63.6,30.20,WNW,300,0.3,1.0,97,0.00,,,0.00,meteo_script,2013-09-28 15:05:00,
2013-09-28 11:15:00,66.3,64.5,30.20,NE,44,0.1,1.0,94,0.00,,,0.00,meteo_script,2013-09-28 15:15:00,
2013-09-28 11:20:00,67.0,64.9,30.20,NW,305,0.2,3.0,93,0.00,,,0.00,meteo_script,2013-09-28 15:20:00,
2013-09-28 11:25:00,67.6,64.9,30.20,WSW,257,0.2,2.0,91,0.00,,,0.00,meteo_script,2013-09-28 15:25:00,
2013-09-28 11:30:00,68.3,65.1,30.20,North,0,0.1,2.0,89,0.00,,,0.00,meteo_script,2013-09-28 15:30:00,
2013-09-28 11:40:00,69.4,65.3,30.19,North,356,0.2,2.0,87,0.00,,,0.00,meteo_script,2013-09-28 15:40:00,
2013-09-28 11:45:00,69.9,65.5,30.19,WNW,282,0.3,3.0,86,0.00,,,0.00,meteo_script,2013-09-28 15:45:00,
2013-09-28 11:55:00,71.0,66.1,30.19,WNW,282,0.1,2.0,84,0.00,,,0.00,meteo_script,2013-09-28 15:55:00,
2013-09-28 12:00:00,71.7,66.3,30.19,North,0,0.1,1.0,83,0.00,,,0.00,meteo_script,2013-09-28 16:00:00,
2013-09-28 12:10:00,72.5,66.9,30.19,WNW,292,0.2,2.0,82,0.00,,,0.00,meteo_script,2013-09-28 16:10:00,
2013-09-28 12:15:00,72.9,66.4,30.19,NNW,337,0.2,2.0,80,0.00,,,0.00,meteo_script,2013-09-28 16:15:00,
2013-09-28 12:25:00,73.7,66.5,30.19,NNW,327,0.6,5.0,78,0.00,,,0.00,meteo_script,2013-09-28 16:25:00,
2013-09-28 12:30:00,74.1,66.8,30.18,NNE,22,0.5,2.0,78,0.00,,,0.00,meteo_script,2013-09-28 16:30:00,
2013-09-28 12:35:00,74.5,67.2,30.18,West,260,0.2,2.0,78,0.00,,,0.00,meteo_script,2013-09-28 16:35:00,
2013-09-28 12:45:00,74.6,66.7,30.18,West,275,0.2,3.0,76,0.00,,,0.00,meteo_script,2013-09-28 16:45:00,
2013-09-28 12:50:00,73.6,66.0,30.18,North,0,0.2,1.0,77,0.00,,,0.00,meteo_script,2013-09-28 16:50:00,
2013-09-28 13:00:00,74.2,66.4,30.17,WNW,292,0.1,2.0,76,0.00,,,0.00,meteo_script,2013-09-28 17:00:00,
2013-09-28 13:05:00,73.3,65.2,30.18,WNW,295,0.1,2.0,76,0.00,,,0.00,meteo_script,2013-09-28 17:05:00,
2013-09-28 13:10:00,72.6,65.3,30.17,WNW,295,0.1,1.0,78,0.00,,,0.00,meteo_script,2013-09-28 17:10:00,
2013-09-28 13:20:00,71.3,64.8,30.17,North,0,0.1,2.0,79,0.00,,,0.00,meteo_script,2013-09-28 17:20:00,
2013-09-28 13:25:00,71.8,64.7,30.16,NW,305,0.2,3.0,78,0.00,,,0.00,meteo_script,2013-09-28 17:25:00,
2013-09-28 13:35:00,72.0,64.0,30.16,NW,305,0.1,1.0,75,0.00,,,0.00,meteo_script,2013-09-28 17:35:00,
2013-09-28 13:40:00,72.5,63.7,30.17,NW,305,0.1,1.0,74,0.00,,,0.00,meteo_script,2013-09-28 17:40:00,
2013-09-28 13:50:00,72.2,64.6,30.16,North,0,0.1,1.0,77,0.00,,,0.00,meteo_script,2013-09-28 17:50:00,
2013-09-28 13:55:00,72.9,65.2,30.16,NW,305,0.1,1.0,77,0.00,,,0.00,meteo_script,2013-09-28 17:55:00,
2013-09-28 14:05:00,74.2,65.0,30.16,NW,305,0.1,2.0,73,0.00,,,0.00,meteo_script,2013-09-28 18:05:00,
2013-09-28 14:10:00,74.9,65.0,30.16,North,0,0.2,3.0,71,0.00,,,0.00,meteo_script,2013-09-28 18:10:00,
2013-09-28 14:15:00,75.6,65.7,30.16,SE,134,0.2,2.0,71,0.00,,,0.00,meteo_script,2013-09-28 18:15:00,
2013-09-28 14:25:00,72.6,64.1,30.16,North,0,0.1,0.0,74,0.00,,,0.00,meteo_script,2013-09-28 18:25:00,
2013-09-28 14:30:00,71.8,64.2,30.16,North,0,0.0,0.0,77,0.00,,,0.00,meteo_script,2013-09-28 18:30:00,
2013-09-28 14:40:00,73.3,64.4,30.15,North,358,0.2,2.0,73,0.00,,,0.00,meteo_script,2013-09-28 18:40:00,
2013-09-28 14:45:00,74.0,64.2,30.15,ESE,112,0.2,2.0,71,0.00,,,0.00,meteo_script,2013-09-28 18:45:00,
2013-09-28 14:55:00,74.8,64.3,30.15,SW,223,0.2,2.0,69,0.00,,,0.00,meteo_script,2013-09-28 18:55:00,
2013-09-28 15:05:00,72.4,63.7,30.15,North,0,0.0,1.0,74,0.00,,,0.00,meteo_script,2013-09-28 19:05:00,
2013-09-28 15:10:00,71.7,64.5,30.15,North,0,0.0,0.0,78,0.00,,,0.00,meteo_script,2013-09-28 19:10:00,
2013-09-28 15:15:00,72.2,64.3,30.15,North,0,0.0,0.0,76,0.00,,,0.00,meteo_script,2013-09-28 19:15:00,
2013-09-28 15:25:00,73.2,63.7,30.15,North,0,0.1,2.0,72,0.00,,,0.00,meteo_script,2013-09-28 19:25:00,
2013-09-28 15:30:00,73.6,64.5,30.15,ESE,106,0.2,2.0,73,0.00,,,0.00,meteo_script,2013-09-28 19:30:00,
2013-09-28 15:40:00,73.0,63.8,30.15,North,0,0.1,1.0,72,0.00,,,0.00,meteo_script,2013-09-28 19:40:00,
2013-09-28 15:45:00,72.2,63.8,30.15,North,0,0.1,2.0,75,0.00,,,0.00,meteo_script,2013-09-28 19:45:00,
2013-09-28 15:50:00,71.4,63.9,30.15,South,169,0.1,1.0,77,0.00,,,0.00,meteo_script,2013-09-28 19:50:00,
2013-09-28 16:00:00,71.5,63.9,30.14,North,0,0.1,1.0,77,0.00,,,0.00,meteo_script,2013-09-28 20:00:00,
2013-09-28 16:05:00,71.4,63.7,30.15,North,0,0.1,2.0,76,0.00,,,0.00,meteo_script,2013-09-28 20:05:00,
2013-09-28 16:15:00,70.9,63.3,30.14,SW,234,0.2,4.0,77,0.00,,,0.00,meteo_script,2013-09-28 20:15:00,
2013-09-28 16:20:00,70.6,63.4,30.14,SW,231,0.2,2.0,77,0.00,,,0.00,meteo_script,2013-09-28 20:20:00,
2013-09-28 16:25:00,70.4,62.9,30.15,SSW,193,0.1,2.0,77,0.00,,,0.00,meteo_script,2013-09-28 20:25:00,
2013-09-28 16:35:00,70.1,62.7,30.15,SW,215,0.1,3.0,77,0.00,,,0.00,meteo_script,2013-09-28 20:35:00,
2013-09-28 16:40:00,69.9,62.7,30.15,West,278,0.1,1.0,77,0.00,,,0.00,meteo_script,2013-09-28 20:40:00,
2013-09-28 16:50:00,69.4,61.9,30.15,North,0,0.1,0.0,77,0.00,,,0.00,meteo_script,2013-09-28 20:50:00,
2013-09-28 16:55:00,69.2,62.0,30.15,North,0,0.1,4.0,78,0.00,,,0.00,meteo_script,2013-09-28 20:55:00,
2013-09-28 17:00:00,68.9,61.9,30.15,North,0,0.1,2.0,78,0.00,,,0.00,meteo_script,2013-09-28 21:00:00,
2013-09-28 17:10:00,68.5,61.7,30.15,North,0,0.2,1.0,79,0.00,,,0.00,meteo_script,2013-09-28 21:10:00,
2013-09-28 17:15:00,68.2,61.8,30.15,West,274,0.0,2.0,80,0.00,,,0.00,meteo_script,2013-09-28 21:15:00,
2013-09-28 17:25:00,67.7,61.3,30.15,North,0,0.1,1.0,80,0.00,,,0.00,meteo_script,2013-09-28 21:25:00,
2013-09-28 17:30:00,67.4,61.4,30.15,North,0,0.0,1.0,81,0.00,,,0.00,meteo_script,2013-09-28 21:30:00,
2013-09-28 17:40:00,66.8,61.5,30.16,SSW,211,0.0,1.0,83,0.00,,,0.00,meteo_script,2013-09-28 21:40:00,
2013-09-28 17:45:00,66.4,61.4,30.15,North,0,0.0,1.0,83,0.00,,,0.00,meteo_script,2013-09-28 21:45:00,
2013-09-28 17:55:00,65.6,61.0,30.16,North,0,0.0,0.0,85,0.00,,,0.00,meteo_script,2013-09-28 21:55:00,
2013-09-28 18:00:00,65.2,61.4,30.16,North,0,0.0,1.0,87,0.00,,,0.00,meteo_script,2013-09-28 22:00:00,
2013-09-28 18:05:00,64.8,61.1,30.16,North,0,0.0,0.0,88,0.00,,,0.00,meteo_script,2013-09-28 22:05:00,
2013-09-28 18:15:00,64.0,60.6,30.16,North,0,0.0,0.0,88,0.00,,,0.00,meteo_script,2013-09-28 22:15:00,
2013-09-28 18:20:00,63.6,60.5,30.16,North,0,0.0,0.0,89,0.00,,,0.00,meteo_script,2013-09-28 22:20:00,
2013-09-28 18:30:00,63.0,60.3,30.16,North,0,0.0,0.0,91,0.00,,,0.00,meteo_script,2013-09-28 22:30:00,
2013-09-28 18:35:00,62.6,59.9,30.16,North,0,0.0,0.0,91,0.00,,,0.00,meteo_script,2013-09-28 22:35:00,
2013-09-28 18:40:00,62.4,59.7,30.15,North,0,0.0,0.0,91,0.00,,,0.00,meteo_script,2013-09-28 22:40:00,
2013-09-28 18:45:00,62.2,59.9,30.15,North,0,0.0,0.0,92,0.00,,,0.00,meteo_script,2013-09-28 22:45:00,
2013-09-28 18:50:00,61.9,59.9,30.15,North,0,0.0,0.0,93,0.00,,,0.00,meteo_script,2013-09-28 22:50:00,
2013-09-28 18:55:00,61.5,59.8,30.15,North,0,0.0,0.0,94,0.00,,,0.00,meteo_script,2013-09-28 22:55:00,
2013-09-28 19:05:00,61.2,59.5,30.15,North,0,0.0,0.0,94,0.00,,,0.00,meteo_script,2013-09-28 23:05:00,
2013-09-28 19:10:00,61.0,59.3,30.15,North,0,0.0,0.0,94,0.00,,,0.00,meteo_script,2013-09-28 23:10:00,
2013-09-28 19:20:00,60.6,59.2,30.15,North,0,0.0,0.0,95,0.00,,,0.00,meteo_script,2013-09-28 23:20:00,
2013-09-28 19:25:00,60.2,59.1,30.16,North,0,0.0,0.0,96,0.00,,,0.00,meteo_script,2013-09-28 23:25:00,
2013-09-28 19:35:00,59.8,59.0,30.16,North,0,0.0,0.0,97,0.00,,,0.00,meteo_script,2013-09-28 23:35:00,
2013-09-28 19:40:00,59.6,59.1,30.16,North,0,0.0,0.0,98,0.00,,,0.00,meteo_script,2013-09-28 23:40:00,
2013-09-28 19:50:00,59.5,58.9,30.16,North,0,0.0,0.0,98,0.00,,,0.00,meteo_script,2013-09-28 23:50:00,
2013-09-28 19:55:00,59.5,58.9,30.15,North,0,0.0,0.0,98,0.00,,,0.00,meteo_script,2013-09-28 23:55:00,
2013-09-28 20:05:00,59.0,58.7,30.15,North,0,0.0,0.0,99,0.00,,,0.00,meteo_script,2013-09-29 00:05:00,
2013-09-28 20:10:00,58.8,58.5,30.15,North,0,0.0,0.0,99,0.00,,,0.00,meteo_script,2013-09-29 00:10:00,
2013-09-28 20:15:00,58.6,58.6,30.15,North,0,0.0,0.0,100,0.00,,,0.00,meteo_script,2013-09-29 00:15:00,
2013-09-28 20:20:00,58.5,58.5,30.16,North,0,0.0,0.0,100,0.00,,,0.00,meteo_script,2013-09-29 00:20:00,
2013-09-28 20:30:00,58.2,58.2,30.16,North,0,0.0,0.0,100,0.00,,,0.00,meteo_script,2013-09-29 00:30:00,
2013-09-28 20:40:00,57.9,57.9,30.16,North,0,0.0,0.0,100,0.00,,,0.00,meteo_script,2013-09-29 00:40:00,
2013-09-28 20:45:00,57.6,57.6,30.16,North,0,0.0,0.0,100,0.00,,,0.00,meteo_script,2013-09-29 00:45:00,
2013-09-28 20:55:00,56.9,56.9,30.16,North,0,0.0,0.0,100,0.00,,,0.00,meteo_script,2013-09-29 00:55:00,
2013-09-28 21:05:00,56.5,56.5,30.16,North,0,0.0,0.0,100,0.00,,,0.00,meteo_script,2013-09-29 01:05:00,
2013-09-28 21:10:00,56.5,56.5,30.16,North,0,0.0,0.0,100,0.00,,,0.00,meteo_script,2013-09-29 01:10:00,
2013-09-28 21:20:00,56.5,56.5,30.16,North,0,0.0,0.0,100,0.00,,,0.00,meteo_script,2013-09-29 01:20:00,
2013-09-28 21:25:00,56.4,56.4,30.16,North,0,0.0,0.0,100,0.00,,,0.00,meteo_script,2013-09-29 01:25:00,
2013-09-28 21:35:00,55.8,55.8,30.16,North,0,0.0,0.0,100,0.00,,,0.00,meteo_script,2013-09-29 01:35:00,
2013-09-28 21:40:00,55.5,55.5,30.16,North,0,0.0,0.0,100,0.00,,,0.00,meteo_script,2013-09-29 01:40:00,
2013-09-28 21:45:00,55.2,55.2,30.16,North,0,0.0,0.0,100,0.00,,,0.00,meteo_script,2013-09-29 01:45:00,
2013-09-28 21:55:00,54.7,54.7,30.16,North,0,0.0,0.0,100,0.00,,,0.00,meteo_script,2013-09-29 01:55:00,
2013-09-28 22:00:00,54.6,54.6,30.16,North,0,0.0,0.0,100,0.00,,,0.00,meteo_script,2013-09-29 02:00:00,
2013-09-28 22:10:00,54.3,54.3,30.16,North,0,0.0,0.0,100,0.00,,,0.00,meteo_script,2013-09-29 02:10:00,
2013-09-28 22:20:00,54.0,54.0,30.16,North,0,0.0,0.0,100,0.00,,,0.00,meteo_script,2013-09-29 02:20:00,
2013-09-28 22:25:00,53.9,53.9,30.16,North,0,0.0,0.0,100,0.00,,,0.00,meteo_script,2013-09-29 02:25:00,
2013-09-28 22:30:00,53.8,53.8,30.16,North,0,0.0,0.0,100,0.00,,,0.00,meteo_script,2013-09-29 02:30:00,
2013-09-28 22:40:00,53.7,53.7,30.16,North,0,0.0,0.0,100,0.00,,,0.00,meteo_script,2013-09-29 02:40:00,
2013-09-28 22:45:00,53.6,53.6,30.16,North,0,0.0,0.0,100,0.00,,,0.00,meteo_script,2013-09-29 02:45:00,
2013-09-28 22:50:00,53.5,53.5,30.16,North,0,0.0,0.0,100,0.00,,,0.00,meteo_script,2013-09-29 02:50:00,
2013-09-28 23:00:00,52.9,52.9,30.15,North,0,0.0,0.0,100,0.00,,,0.00,meteo_script,2013-09-29 03:00:00,
2013-09-28 23:05:00,52.8,52.8,30.15,North,0,0.0,0.0,100,0.00,,,0.00,meteo_script,2013-09-29 03:05:00,
2013-09-28 23:15:00,52.5,52.5,30.15,North,0,0.0,0.0,100,0.00,,,0.00,meteo_script,2013-09-29 03:15:00,
2013-09-28 23:20:00,52.4,52.4,30.15,North,0,0.0,0.0,100,0.00,,,0.00,meteo_script,2013-09-29 03:20:00,
2013-09-28 23:25:00,52.4,52.4,30.15,North,0,0.0,0.0,100,0.00,,,0.00,meteo_script,2013-09-29 03:25:00,
2013-09-28 23:35:00,52.4,52.4,30.15,North,0,0.0,0.0,100,0.00,,,0.00,meteo_script,2013-09-29 03:35:00,
2013-09-28 23:40:00,52.3,52.3,30.15,North,0,0.0,0.0,100,0.00,,,0.00,meteo_script,2013-09-29 03:40:00,
2013-09-28 23:45:00,52.1,52.1,30.14,North,0,0.0,0.0,100,0.00,,,0.00,meteo_script,2013-09-29 03:45:00,
2013-09-28 23:55:00,51.8,51.8,30.14,North,0,0.0,0.0,100,0.00,,,0.00,meteo_script,2013-09-29 03:55:00,